�������ċp�F�����K�X���j�^�v���󋵏��
Date,Time,�ċp�F�����K�X���j�^(cps),����,����(m/s)
2021/06/23,00:00,1.5,-,CALM
2021/06/23,00:10,1.4,�k,0.6
2021/06/23,00:20,1.5,-,CALM
2021/06/23,00:30,1.5,-,CALM
2021/06/23,00:40,1.4,�k��,0.6
2021/06/23,00:50,1.5,-,CALM
2021/06/23,01:00,1.5,��쓌,0.6
2021/06/23,01:10,1.5,��쓌,1.1
2021/06/23,01:20,1.4,��쓌,1.2
2021/06/23,01:30,1.4,��쓌,1.1
2021/06/23,01:40,1.5,��쓌,1.2
2021/06/23,01:50,1.4,��,0.8
2021/06/23,02:00,1.4,��,1.2
2021/06/23,02:10,1.4,�쐼,1.2
2021/06/23,02:20,1.4,�쐼,0.8
2021/06/23,02:30,1.4,-,CALM
2021/06/23,02:40,1.5,��,0.8
2021/06/23,02:50,1.4,-,CALM
2021/06/23,03:00,1.5,�k��,0.8
2021/06/23,03:10,1.4,-,CALM
2021/06/23,03:20,1.4,-,CALM
2021/06/23,03:30,1.4,��쓌,0.6
2021/06/23,03:40,1.4,-,CALM
2021/06/23,03:50,1.5,�k��,0.6
2021/06/23,04:00,1.5,���k��,0.6
2021/06/23,04:10,1.5,���k��,0.9
2021/06/23,04:20,1.4,�k��,1.2
2021/06/23,04:30,1.4,�k�k��,1.2
2021/06/23,04:40,1.5,�k�k��,1.4
2021/06/23,04:50,1.4,�k�k��,1.5
2021/06/23,05:00,1.5,�k,1.5
2021/06/23,05:10,1.5,�k�k��,2.3
2021/06/23,05:20,1.5,�k�k��,2.6
2021/06/23,05:30,1.5,�k,3.1
2021/06/23,05:40,1.5,�k�k��,3.7
2021/06/23,05:50,1.5,�k�k��,3.4
2021/06/23,06:00,1.5,�k�k��,3.2
2021/06/23,06:10,1.5,�k�k��,4.3
2021/06/23,06:20,1.4,�k�k��,4.0
2021/06/23,06:30,1.5,�k,4.3
2021/06/23,06:40,1.6,�k,4.3
2021/06/23,06:50,1.5,�k,4.1
2021/06/23,07:00,1.5,�k,2.8
2021/06/23,07:10,1.5,�k�k��,3.1
2021/06/23,07:20,1.4,�k�k��,3.8
2021/06/23,07:30,1.6,�k,3.0
2021/06/23,07:40,1.5,�k,2.0
2021/06/23,07:50,1.5,�k�k��,3.2
2021/06/23,08:00,1.4,��,4.5
2021/06/23,08:10,1.5,�k,3.7
2021/06/23,08:20,1.5,�k�k��,2.0
2021/06/23,08:30,1.4,�k,1.2
2021/06/23,08:40,1.4,�k�k��,1.7
2021/06/23,08:50,1.5,�k�k��,2.6
2021/06/23,09:00,1.4,�k�k��,3.0
2021/06/23,09:10,1.4,�k�k��,2.5
2021/06/23,09:20,1.4,�k��,2.5
2021/06/23,09:30,1.6,�k�k��,2.0
2021/06/23,09:40,1.5,�k��,1.9
2021/06/23,09:50,1.4,�k�k��,2.6
2021/06/23,10:00,1.4,�k�k��,3.1
2021/06/23,10:10,1.5,�k�k��,3.7
2021/06/23,10:20,1.5,�k�k��,2.6
2021/06/23,10:30,1.5,�k�k��,3.0
2021/06/23,10:40,1.5,�k�k��,2.6
2021/06/23,10:50,1.5,�k��,2.8
2021/06/23,11:00,1.5,���k��,3.0
2021/06/23,11:10,1.4,�k��,2.6
2021/06/23,11:20,1.6,���k��,3.0
2021/06/23,11:30,1.5,���k��,3.1
2021/06/23,11:40,1.4,���k��,3.2
2021/06/23,11:50,1.5,���k��,3.3
2021/06/23,12:00,1.4,���k��,3.2
2021/06/23,12:10,1.5,���k��,2.0
2021/06/23,12:20,1.5,���k��,1.7
2021/06/23,12:30,1.6,���k��,1.4
2021/06/23,12:40,1.5,�k,0.9
2021/06/23,12:50,1.5,-,CALM
2021/06/23,13:00,1.4,�k��,0.6
2021/06/23,13:10,1.5,�k��,1.2
2021/06/23,13:20,1.4,�k�k��,1.7
2021/06/23,13:30,1.5,�k�k��,1.7
2021/06/23,13:40,1.4,�k,1.5
2021/06/23,13:50,1.5,�k��,1.1
2021/06/23,14:00,1.5,���k��,2.0
2021/06/23,14:10,1.5,��,0.8
2021/06/23,14:20,1.5,���k��,1.7
2021/06/23,14:30,1.4,�k�k��,2.0
2021/06/23,14:40,1.4,�k�k��,3.6
2021/06/23,14:50,1.4,�k,4.2
2021/06/23,15:00,1.4,�k,3.9
2021/06/23,15:10,1.5,�k�k��,3.6
2021/06/23,15:20,1.4,�k,4.9
2021/06/23,15:30,1.5,�k,6.3
2021/06/23,15:40,1.4,�k,6.0
2021/06/23,15:50,1.4,�k,5.1
2021/06/23,16:00,1.6,�k,5.2
2021/06/23,16:10,1.5,�k,5.2
2021/06/23,16:20,1.5,�k,5.2
2021/06/23,16:30,1.5,�k,4.5
2021/06/23,16:40,1.4,�k,5.4
2021/06/23,16:50,1.5,�k,5.1
2021/06/23,17:00,1.5,�k,3.9
2021/06/23,17:10,1.5,�k,4.1
2021/06/23,17:20,1.5,�k�k��,4.2
2021/06/23,17:30,1.5,�k,4.2
2021/06/23,17:40,1.5,�k,4.4
2021/06/23,17:50,1.5,�k,3.9
2021/06/23,18:00,1.5,�k,3.6
2021/06/23,18:10,1.5,�k,4.4
2021/06/23,18:20,1.5,�k,4.2
2021/06/23,18:30,1.5,�k,4.4
2021/06/23,18:40,1.5,�k,4.6
2021/06/23,18:50,1.4,�k�k��,4.7
2021/06/23,19:00,1.4,�k,4.8
2021/06/23,19:10,1.5,�k,5.0
2021/06/23,19:20,1.4,�k,3.8
2021/06/23,19:30,1.5,�k,3.4
2021/06/23,19:40,1.4,�k,3.6
2021/06/23,19:50,1.5,�k,4.3
2021/06/23,20:00,1.5,�k,5.3
2021/06/23,20:10,1.5,�k,4.7
2021/06/23,20:20,1.4,�k,4.7
2021/06/23,20:30,1.5,�k,4.1
2021/06/23,20:40,1.5,�k,4.4
2021/06/23,20:50,1.5,�k,4.0
2021/06/23,21:00,1.5,�k,3.9
2021/06/23,21:10,1.5,�k,4.2
2021/06/23,21:20,1.5,�k,3.8
2021/06/23,21:30,1.4,�k,3.5
2021/06/23,21:40,1.4,�k,4.1
2021/06/23,21:50,1.5,�k,3.9
2021/06/23,22:00,1.4,�k,4.0
2021/06/23,22:10,1.6,�k,4.0
2021/06/23,22:20,1.5,�k,3.8
2021/06/23,22:30,1.5,�k,3.9
2021/06/23,22:40,1.4,�k,3.8
2021/06/23,22:50,1.5,�k,3.0
2021/06/23,23:00,1.5,�k,3.3
2021/06/23,23:10,1.5,�k,2.2
2021/06/23,23:20,1.5,�k,1.9
2021/06/23,23:30,1.5,�k,1.5
2021/06/23,23:40,1.5,�k,1.2
2021/06/23,23:50,1.5,�k�k��,1.5
